Regional Weather Roundup
Issued by NWS

Home | Current Version | Previous Version | Text Only | Print | Product List | Glossary Off
Versions: 1 2 3 4 5 6 7 8 9 10 11 12 13 14 15 16 17 18 19 20 21 22 23 24 25 26 27 28 29 30 31 32 33 34 35 36 37 38 39 40 41 42 43 44 45 46 47 48 49 50

000
ASUS43 KMPX 211210
RWRMN
WEATHER ROUNDUP FOR MINNESOTA
NATIONAL WEATHER SERVICE TWIN CITIES/CHANHASSEN MN
600 AM CST SAT JAN 21 2017


NOTE: "FAIR" INDICATES FEW OR NO CLOUDS BELOW 12,000 FEET WITH NO
SIGNIFICANT WEATHER AND/OR OBSTRUCTIONS TO VISIBILITY. N/A MEANS
CURRENT SKY AND/OR WEATHER CONDITIONS ARE NOT AVAILABLE.

MNZ060>063-068>070-211300-
   Twin Cities Metro

CITY           SKY/WX    TMP DP  RH WIND       PRES   REMARKS
TWIN CITIES    CLOUDY    35  34  96 E8        29.44F FOG     WCI  29
6HR MIN TEMP:  35; 6HR MAX TEMP:  36; 6HR PCP:  0.01;

ST PAUL        CLOUDY    35  35 100 E3        29.46F FOG
CRYSTAL        CLOUDY    35  33  92 NE6       29.43F FOG     WCI  30
BLAINE         CLOUDY    36  36 100 E7        29.44F FOG
LAKEVILLE      MIX PCPN  32  32 100 NE7       29.42F VSB 1/4 WCI  26
EDEN PRAIRIE   CLOUDY    35  34  96 E7        29.42S FOG     WCI  29
6HR MIN TEMP:  35; 6HR MAX TEMP:  36; 6HR PCP: TRACE;

SOUTH ST PAUL  CLOUDY    35  35  99 E5        29.45S FOG     WCI  31
LAKE ELMO      CLOUDY    34  34 100 E6        29.46S FOG     WCI  29
$$
MNZ001>005-007-008-013>017-022>024-027-028-211300-
   Northwest Minnesota

CITY           SKY/WX    TMP DP  RH WIND       PRES   REMARKS
BEMIDJI        FOG       32  32 100 E7        29.44S VSB 3/4 WCI  26
HALLOCK        CLOUDY    37  36  93 E10       29.41S
ROSEAU         CLOUDY    36  30  80 SE7       29.45S
WARROAD        CLOUDY    34  30  86 SE6       29.46S WCI  29
THIEF RVR FALL CLOUDY    34  33  96 SE13      29.42S WCI  25
CROOKSTON      CLOUDY    36  34  93 SE8       29.41S
FOSSTON        DRIZZLE   32  32 100 E9        29.42S WCI  24
DETROIT LAKES  CLOUDY    34  34 100 SE7       29.41S FOG     WCI  28
MOORHEAD       CLOUDY    34  34 100 SE6       29.39F WCI  29
PARK RAPIDS    FOG       34  31  88 SE7       29.42S VSB 3/4 WCI  28
MAHNOMEN       CLOUDY    34  33  95 SE8       29.41R WCI  27
$$
MNZ006-009>011-018-025>026-211300-
   North Central Minnesota

CITY           SKY/WX    TMP DP  RH WIND       PRES   REMARKS
BAUDETTE       CLOUDY    34  33  96 E8        29.47S WCI  27
FLAG ISLAND    CLOUDY    34  32  93 E6        29.47S FOG     WCI  29
INTL FALLS     CLOUDY    33  32  96 E8        29.50S WCI  26
6HR MIN TEMP:  33; 6HR MAX TEMP:  33; 6HR PCP:  0.03;

WASKISH        CLOUDY    34  34 100 SE6       29.46S WCI  29
BIG FORK       FOG       34  34 100 SE3       29.48S VSB 3/4
LONGVILLE      CLOUDY    34  34 100 E5        29.46S FOG     WCI  30
GRAND RAPIDS   FOG      N/A N/A N/A SE6       29.50S VSB 1
CRANE LAKE     CLOUDY    32  30  93 CALM      29.53F
ORR            CLOUDY    34  30  86 CALM      29.48S
COOK           CLOUDY    34  34 100 CALM      29.51R FOG
WALKER         FOG       32  32 100 E5        29.45S VSB 1/2 WCI  27
$$
MNZ012-019>021-037-211300-
   Northeast Minnesota

CITY           SKY/WX    TMP DP  RH WIND       PRES   REMARKS
DULUTH         DRZL/FOG  34  34 100 SE7       29.50S VSB 1/8 WCI  28
6HR MIN TEMP:  34; 6HR MAX TEMP:  34; 6HR PCP:  0.01;

ELY            CLOUDY    34  34 100 CALM      29.51S
HIBBING        FOG       32  32 100 SE5       29.49S VSB 1/2 WCI  27
EVELETH        CLOUDY    34  33  98 CALM      29.51S FOG
DULUTH HARBOR  CLOUDY    34  34 100 CALM      29.53F
TWO HARBORS    HAZE      37  32  81 E3        29.51S VSB 1
SILVER BAY     FOG       36  36 100 CALM      29.52S VSB 1/4
GRAND MARAIS     N/A     37  36  96 NE8       29.57R
G MARAIS ARPRT MIX PCPN  30  28  93 E3        29.54R VSB 1/4
$$
MNZ029>031-032-039>041-046>048-054>057-064-211300-
   West Central Minnesota

CITY           SKY/WX    TMP DP  RH WIND       PRES   REMARKS
FERGUS FALLS   CLOUDY    36  36 100 E9        29.42F
WHEATON        CLOUDY    41  41 100 SE9       29.39F FOG
MORRIS         CLOUDY    34  34 100 E8        29.37F FOG     WCI  27
ALEXANDRIA     CLOUDY    33  33 100 E12       29.40F FOG     WCI  24
ELBOW LAKE     CLOUDY    33  33 100 SE10      29.38F WCI  25
WADENA         FOG       32  32 100 E5        29.42S VSB 1/4 WCI  27
GLENWOOD       CLOUDY    34  34 100 E9        29.40S FOG     WCI  26
APPLETON       CLOUDY    36  34  93 SE10      29.38S FOG
BENSON         CLOUDY    36  32  87 SE7       29.40S
ORTONVILLE     CLOUDY    34  32  93 SE3       29.36F FOG
MADISON        FOG       36  36 100 SE9       29.37S VSB 1
WILLMAR        FOG       36  36 100 E10       29.41S VSB 1
$$
MNZ033>034-036-042>043-049>051-058-059-211300-
   Central Minnesota

CITY           SKY/WX    TMP DP  RH WIND       PRES   REMARKS
ST CLOUD       LGT RAIN  33  33 100 E8        29.43F VSB 1/4 WCI  26
6HR MIN TEMP:  33; 6HR MAX TEMP:  34; 6HR PCP: TRACE;

SAUK CENTRE    FOG       32  32 100 E8        29.41F VSB 1/2 WCI  25
PAYNESVILLE    SNOW      33  33 100 E7        29.42S VSB 1/2 WCI  27
AITKIN         MIX PCPN  36  34  93 CALM      29.46F VSB 3/4
PINE RIVER     FOG       34  34 100 E8        29.50S VSB 1/2 WCI  27
BRAINERD       FOG       33  33 100 E5        29.46S VSB 1/2 WCI  29
STAPLES        FOG       32  32 100 E6        29.43F VSB 1/2 WCI  26
LONG PRAIRIE   SNOW      32  32 100 NE7       29.42S VSB 1/2 WCI  26
LITTLE FALLS   FOG       32  32 100 E5        29.45S VSB 1/2 WCI  27
LITCHFIELD     FOG       36  36 100 E7        29.42S VSB 1/2
BUFFALO        FOG       34  33  96 E7        29.44S VSB 3/4 WCI  28
MAPLE LAKE     FOG       35  35 100 MISG      29.44S VSB 1/2
HUTCHINSON     FOG       34  35 100 NE8       29.41F VSB 1/2 WCI  28
$$
MNZ037-044-045-052-053-211300-
   East Central Minnesota

CITY           SKY/WX    TMP DP  RH WIND       PRES   REMARKS
PRINCETON      FOG       36  34  93 NE5       29.45F VSB 1/2
MORA           CLOUDY    32  32 100 E3        29.49F FOG
CAMBRIDGE      DRZL/FOG  36  36 100 NE5       29.44F VSB 3/4
RUSH CITY      CLOUDY    34  32  93 E5        29.48S FOG     WCI  30
MOOSE LAKE     FOG       34  32  93 E3        29.48F VSB 1
HINCKLEY       CLOUDY    34  34 100 E7        29.48F FOG     WCI  28
CLOQUET        FOG       34  34 100 E5        29.49F VSB 1/4 WCI  30
MCGREGOR       CLOUDY    34  34 100 E7        29.48F VSB 3/4 WCI  28
$$
MNZ071>073-080-081-089-090-097-098-211300-
   Southwest Minnesota

CITY           SKY/WX    TMP DP  RH WIND       PRES   REMARKS
MONTEVIDEO     FOG       34  34 100 S9        29.40S VSB 1   WCI  26
GRANITE FALLS  LGT RAIN  35  35  99 E7        29.40S WCI  29
CANBY          FOG       34  34 100 CALM      29.37S VSB 1/2
MARSHALL       LGT RAIN  33  33 100 SE10      29.37F FOG     WCI  25
REDWOOD FALLS  FOG       34  33  96 E5        29.39S VSB 1/2 WCI  30
OLIVIA         FOG       34  34 100 E7        29.39F VSB 3/4 WCI  28
PIPESTONE      FOG       36  36 100 SE6       29.33F VSB 3/4
WINDOM         FOG       34  34 100 E5        29.37R VSB 1   WCI  30
WORTHINGTON    LGT RAIN  33  33 100 E5        29.36S VSB 1/2 WCI  29
JACKSON        FOG       32  32 100 E5        29.37S VSB 1/2 WCI  27
TRACY          LGT RAIN  34  34 100 E5        29.37S VSB 1/2 WCI  30
SLAYTON        DRZL/FOG  32  32 100 SE5       29.36S VSB 1/2 WCI  28
$$
MNZ065>067-074>077-082>085-091>093-211300-
   South Central Minnesota

CITY           SKY/WX    TMP DP  RH WIND       PRES   REMARKS
MANKATO        LGT RAIN  35  34  96 E7        29.40S WCI  29
NEW ULM        DRIZZLE   34  34 100 E7        29.39F WCI  28
ST JAMES       DRZL/FOG  34  34 100 E5        29.40S VSB 1   WCI  30
FAIRMONT       LGT RAIN  34  33  96 E3        29.38S VSB 3/4
GLENCOE        CLOUDY    35  35 100 E6        29.40F FOG     WCI  30
OWATONNA       RAIN      36  34  93 E9        29.40S
WASECA         RAIN      34  34 100 E6        29.41S WCI  29
ALBERT LEA     DRIZZLE   36  36 100 E5        29.38S
$$
MNZ078>079-086>088-094>096-211300-
   Southeast Minnesota

CITY           SKY/WX    TMP DP  RH WIND       PRES   REMARKS
ROCHESTER      LGT RAIN  34  34 100 NE10      29.39F FOG     WCI  26
6HR MIN TEMP:  33; 6HR MAX TEMP:  34; 6HR PCP:  0.20;

RED WING       CLOUDY    36  34  93 E9        29.43F FOG
STANTON        DRIZZLE   35  33  94 NE7       29.41F WCI  29
DODGE CENTER   LGT SNOW  34  34 100 CALM      29.39F
WINONA         RAIN      36  36 100 CALM      29.45S
AUSTIN         LGT RAIN  36  34  93 E9        29.38S
PRESTON        LGT RAIN  34  33  97 E7        29.40F WCI  28
$$
ABBREVIATIONS USED IN REMARKS
   TC - TEMPERATURES IN CELSIUS
  WCI - WIND CHILL INDEX
   HX - HEAT INDEX
  VSB - VISIBILITY
$$



USA.gov is the U.S. government's official web portal to all federal, state and local government web resources and services.